This is the latest recevied weather packets stored in our database for station/object N4TLC. If no packets are shown the sender has not sent any weather packets the latest 10 day(s).
| Time | Temp. | Humidity | Pressure | Rain* | Wind** | Luminosity | Snow |
|---|---|---|---|---|---|---|---|
| 1777471858 | 16.67° C | 91% | 1014.9 hPa | 0 mm | - | 79 W/m² | - |
| 1777471555 | 16.67° C | 91% | 1015 hPa | 0 mm | - | 93 W/m² | - |
| 1777471251 | 16.11° C | 91% | 1015.1 hPa | 0 mm | - | 93 W/m² | - |
| 1777470948 | 16.11° C | 90% | 1015 hPa | 0 mm | - | 93 W/m² | - |
| 1777470645 | 16.11° C | 90% | 1014.9 hPa | 0 mm | - | 100 W/m² | - |
| 1777470341 | 16.11° C | 90% | 1015 hPa | 0 mm | - | 125 W/m² | - |
| 1777470038 | 16.11° C | 90% | 1015.1 hPa | 0 mm | - | 106 W/m² | - |
| 1777469733 | 16.11° C | 90% | 1015.3 hPa | 0 mm | - | 105 W/m² | - |
| 1777469430 | 16.67° C | 90% | 1015.5 hPa | 0 mm | - | 84 W/m² | - |
| 1777469125 | 16.11° C | 90% | 1015.8 hPa | 0 mm | - | 69 W/m² | - |
| 1777468825 | 16.11° C | 90% | 1015.8 hPa | 0 mm | - | 80 W/m² | - |
| 1777468522 | 16.11° C | 90% | 1015.8 hPa | 0 mm | - | 102 W/m² | - |
| 1777468218 | 16.11° C | 90% | 1015.7 hPa | 0 mm | - | 111 W/m² | - |
| 1777467915 | 16.11° C | 91% | 1015.8 hPa | 0 mm | - | 114 W/m² | - |
| 1777467611 | 16.11° C | 91% | 1015.6 hPa | 0 mm | - | 114 W/m² | - |
| 1777467306 | 16.11° C | 91% | 1015.4 hPa | 0 mm | - | 109 W/m² | - |
| 1777467001 | 16.11° C | 91% | 1015.4 hPa | 0 mm | - | 127 W/m² | - |
| 1777466699 | 16.11° C | 92% | 1015.3 hPa | 0 mm | - | 130 W/m² | - |
| 1777466397 | 15.56° C | 92% | 1015.3 hPa | 0 mm | - | 121 W/m² | - |
| 1777466092 | 15.56° C | 92% | 1015.2 hPa | 0 mm | - | 113 W/m² | - |
| 1777465789 | 15.56° C | 93% | 1015.5 hPa | 0 mm | - | 114 W/m² | - |
| 1777465485 | 15.56° C | 93% | 1015.5 hPa | 0 mm | - | 114 W/m² | - |
| 1777465184 | 15.56° C | 93% | 1015.5 hPa | 0 mm | - | 109 W/m² | - |
| 1777464879 | 15.56° C | 94% | 1015.6 hPa | 0 mm | - | 99 W/m² | - |
| 1777464575 | 15° C | 94% | 1015.7 hPa | 0 mm | - | 84 W/m² | - |
* Rain latest hour (hover to see other rain measurements)
** Current wind speed in m/s (hover to see current wind gust speed)